Location: Unspecified
(52.4292°N, 19.3359°E)
Time: 00:53:49
(UTC+02:00)

Vanguard 1 Rocket - Pass Details

Date: 27 May 2024
Orbit: 649 x 4221 km, 34.3° (Epoch: 13 June)

Event Time Altitude Azimuth Distance (km) Brightness Sun altitude
Rises 10:12:31 0° 244° (WSW) 8,293 12.1 48.0°
Reaches altitude 10° 10:19:17 10° 238° (WSW) 6,960 11.8 48.9°
Maximum altitude 10:37:28 38° 181° (S) 3,675 11.5 51.1°
Drops below altitude 10° 10:48:13 10° 119° (ESE) 4,184 11.6 52.3°
Sets 10:51:07 0° 111° (ESE) 4,796 11.6 52.6°
